Wind_Speed
18 20 21 21 22 25 28 31 33 34 35 37 38 40 42 44 46 48 50 52 55 57 59 60 60 60 61 60 59 58 57 56 54 52 49 47 45 42 41 39 37 35 34 31
20 22 23 25 26 28 30 32 34 35 37 38 40 42 45 48 50 52 55 57 60 62 63 64 64 65 65 64 63 62 61 61 60 57 54 50 47 44 42 40 37 34 32 29
23 24 27 28 29 31 33 34 36 39 41 43 44 46 49 52 55 58 61 63 64 66 66 68 69 70 70 69 69 69 68 67 65 62 59 55 50 47 43 40 36 33 31 28
28 29 30 32 33 35 37 40 41 43 45 46 48 50 53 58 61 63 66 68 70 72 73 75 76 77 76 76 76 75 74 72 70 67 63 59 53 48 44 40 36 32 30 27
31 33 35 36 38 40 42 43 45 46 48 52 55 57 60 65 68 71 73 75 77 79 80 81 81 82 82 81 79 78 76 73 71 68 64 60 55 49 45 41 37 32 29 26
33 35 37 39 40 41 43 45 48 51 55 59 62 66 67 71 74 77 79 81 82 83 83 83 82 81 79 76 73 70 66 63 60 59 58 55 53 50 46 42 38 34 29 26
32 34 36 38 39 42 46 50 54 58 62 66 70 74 77 79 81 82 81 79 78 76 74 72 70 67 64 60 56 53 50 48 46 46 48 49 49 49 46 43 39 35 30 27
31 33 36 39 43 47 52 56 61 65 70 74 78 81 81 80 77 73 68 65 62 60 57 54 52 50 46 43 40 39 38 38 39 40 41 42 45 48 47 43 40 35 31 28
33 36 41 46 51 55 60 64 69 74 78 82 83 82 77 70 63 57 53 51 48 46 43 41 41 40 38 37 37 37 36 36 37 38 37 37 42 46 47 44 40 36 32 29
38 42 46 52 56 61 66 70 75 79 81 81 77 70 61 55 50 46 44 43 42 42 41 40 40 41 41 40 40 40 38 36 36 34 33 34 41 46 46 44 41 37 33 29
44 48 52 56 61 66 71 75 78 79 76 70 62 54 49 45 43 42 43 43 43 43 43 42 42 42 43 43 43 41 38 36 35 33 31 32 39 45 46 43 41 37 33 30
49 53 58 62 66 71 75 77 77 73 65 55 49 46 43 43 43 43 44 45 46 46 46 47 47 46 45 44 43 41 38 35 32 30 29 30 36 41 44 42 40 38 35 32
53 57 61 66 70 74 76 75 69 61 52 44 42 42 43 43 45 46 48 49 49 50 50 50 49 48 47 45 43 40 36 32 29 28 27 29 36 39 43 41 41 40 37 34
56 60 63 68 72 75 74 70 61 50 43 41 41 42 44 46 48 50 51 52 52 52 52 50 49 46 45 42 39 36 33 28 27 26 26 30 35 37 41 43 43 41 39 35
58 62 67 71 75 75 71 64 52 42 39 39 41 43 46 49 52 53 54 54 53 52 50 48 45 43 41 38 35 32 29 26 25 25 25 29 35 38 41 44 44 42 39 36
59 64 70 74 76 74 67 57 45 38 38 40 42 46 50 52 55 55 54 54 52 50 47 44 41 37 33 30 27 26 25 24 23 24 26 32 35 39 42 44 43 43 40 36
63 67 72 75 77 71 62 51 42 39 40 42 46 49 52 54 54 53 53 51 50 47 43 39 34 29 24 21 20 21 22 21 22 25 28 31 36 40 41 42 43 42 38 35
66 71 75 76 75 67 56 46 40 40 42 45 48 50 53 54 53 52 52 49 46 42 38 32 26 20 15 14 15 18 20 22 24 27 30 33 37 40 40 41 42 41 39 36
68 72 75 74 69 62 52 43 39 40 43 46 49 51 53 53 52 51 49 47 43 38 32 25 18 11 7 8 11 16 20 23 27 29 31 34 38 39 39 41 42 40 38 35
69 72 74 71 64 57 48 40 38 40 43 46 49 50 50 49 49 47 46 44 40 34 28 21 14 7 0 6 12 18 23 27 29 31 34 35 36 37 38 40 40 39 36 33
69 72 73 68 60 52 44 38 37 39 43 46 49 49 48 46 45 45 44 41 37 32 24 18 12 7 6 11 17 23 27 30 32 34 34 35 36 37 38 40 39 37 34 31
69 71 71 66 57 48 40 36 36 39 43 46 48 48 45 43 42 42 41 38 35 30 25 18 13 10 13 18 23 28 31 32 33 34 34 35 35 35 36 37 36 34 32 30
68 70 69 63 55 45 37 35 35 38 41 44 46 46 43 41 40 39 38 37 34 29 24 19 15 15 19 24 28 30 31 32 33 34 35 34 33 32 33 34 33 32 30 29
67 69 67 61 52 42 35 33 34 37 40 42 43 43 40 38 36 36 36 35 32 26 22 18 16 19 23 27 28 29 30 31 32 32 32 31 29 29 30 31 31 30 29 28
66 67 64 57 48 39 33 31 32 35 37 38 39 38 35 35 35 35 34 32 29 24 20 17 17 20 23 26 28 29 30 30 30 30 29 27 26 25 27 28 28 28 28 27
65 66 62 54 46 38 33 31 32 35 36 36 36 34 31 30 30 30 30 28 26 22 18 17 18 20 22 25 28 29 28 28 27 27 25 24 22 22 22 23 24 25 25 25
64 63 58 50 42 36 32 31 31 33 35 35 34 32 29 28 27 27 25 23 22 20 17 17 18 20 23 25 26 26 25 24 24 22 21 19 18 18 19 20 20 21 22 22
Wind_Direction
316 311 308 304 298 294 293 294 295 295 294 293 292 292 291 290 289 288 287 286 287 287 287 287 287 288 289 289 290 291 293 293 294 295 295 295 296 297 299 302 305 307 308 308
313 309 306 303 301 299 296 295 295 295 295 295 293 292 290 289 288 287 287 286 285 285 285 284 284 284 284 284 285 286 288 288 289 289 290 290 290 290 292 295 297 300 302 304
312 308 305 305 304 301 299 299 299 299 298 297 296 294 292 290 289 288 288 286 284 283 283 282 281 281 281 282 283 284 285 285 284 284 284 283 282 282 283 286 288 291 294 296
314 312 309 309 306 305 305 304 303 302 301 300 297 295 293 291 291 290 289 287 285 283 282 282 282 282 282 282 282 282 282 281 281 280 279 277 275 274 274 275 278 282 284 286
316 314 313 312 312 312 311 310 309 308 306 303 301 299 295 292 292 291 289 288 287 286 285 285 284 283 283 283 282 281 281 280 279 277 275 272 268 264 264 265 267 270 272 274
316 315 315 315 317 317 315 312 312 309 307 304 302 300 297 295 293 291 290 289 288 288 287 287 286 285 285 284 283 283 282 281 278 275 270 266 260 254 253 254 256 259 260 262
317 317 317 320 321 319 314 314 312 310 308 306 304 302 300 298 296 295 295 294 293 292 291 290 289 288 287 285 284 282 280 278 277 274 269 260 250 242 242 243 246 249 249 250
323 324 323 324 322 319 317 316 314 311 309 307 306 304 302 302 301 301 300 298 297 296 296 295 294 292 290 287 283 280 279 278 278 276 272 260 243 232 232 235 238 239 239 239
330 328 327 325 323 322 320 318 316 314 312 309 308 307 308 309 308 307 305 304 302 301 300 298 295 293 292 289 285 284 284 283 283 279 273 256 236 225 224 228 230 231 230 229
330 330 328 325 324 322 320 318 316 314 312 311 311 313 314 313 312 311 310 308 306 303 301 298 294 291 290 287 285 285 284 283 283 279 270 253 232 220 219 220 222 226 222 220
331 330 328 326 324 322 320 318 316 315 315 315 315 317 317 317 316 314 312 310 307 304 302 299 296 292 289 286 284 283 282 282 280 274 266 251 231 219 213 212 214 215 211 211
330 329 328 327 325 323 321 320 318 317 318 318 318 319 319 319 318 316 315 312 309 305 302 299 296 293 290 286 283 281 280 279 274 266 258 243 226 214 207 204 202 202 200 202
330 330 328 326 324 323 322 322 322 322 322 322 322 321 321 321 320 318 316 313 309 306 303 301 297 293 288 284 281 278 276 273 265 258 247 233 219 210 204 199 197 195 195 198
331 329 327 326 325 326 326 327 326 326 326 325 325 324 323 323 322 321 318 315 312 308 305 302 299 293 287 282 277 274 269 261 256 249 238 224 213 203 197 195 195 192 192 196
330 328 328 328 329 330 330 330 329 329 328 327 327 326 326 325 324 322 320 319 316 312 309 305 301 296 287 279 272 265 255 250 246 238 227 210 202 197 193 191 191 188 190 194
331 331 331 332 332 333 333 333 332 331 330 329 329 329 328 327 327 326 324 322 319 316 313 309 303 296 287 277 265 250 240 237 231 221 210 199 197 194 192 190 187 185 188 192
333 334 334 334 335 336 336 335 334 333 332 331 332 332 331 331 330 330 329 326 324 321 318 314 308 298 284 270 253 233 225 220 210 202 195 191 190 190 188 186 184 183 186 188
335 335 336 336 338 338 338 337 335 335 333 334 335 335 335 334 334 335 334 332 330 329 324 320 316 303 279 256 229 215 208 201 194 187 184 183 185 185 183 182 181 182 185 186
336 337 337 338 339 338 338 337 336 336 336 337 338 339 338 338 338 338 339 339 338 339 337 334 330 316 276 228 203 193 187 181 176 174 173 176 180 181 180 180 180 182 184 185
337 338 339 340 340 339 338 338 337 338 339 340 341 341 342 342 342 343 344 347 348 349 349 351 355 357 62 176 173 169 166 164 164 166 168 172 174 175 177 178 179 182 183 184
338 339 340 341 342 340 338 338 339 340 342 343 343 344 345 345 346 348 351 355 358 1 2 5 15 40 102 137 147 152 154 154 156 159 164 168 170 172 174 177 179 180 181 183
339 340 341 342 343 341 339 339 340 342 344 344 345 347 348 349 352 355 359 3 7 11 17 26 41 72 109 128 138 143 145 148 151 155 161 165 168 170 173 176 178 180 182 184
340 341 342 342 343 343 342 341 342 343 345 345 347 350 352 354 358 2 8 12 15 20 27 39 59 87 111 124 132 137 141 145 148 153 157 160 162 166 171 174 176 180 183 186
340 341 342 343 344 344 343 342 342 345 347 348 350 353 355 360 4 7 10 16 21 27 34 49 76 100 115 123 129 135 139 142 145 150 155 159 161 165 169 173 176 180 185 188
341 342 343 344 345 345 343 342 343 346 348 351 353 355 357 2 6 11 16 22 28 34 44 64 87 105 116 123 127 130 134 138 143 148 153 157 159 164 170 175 180 184 190 193
341 343 344 345 346 346 344 342 343 346 349 353 356 359 2 5 9 14 19 25 32 40 53 73 92 105 114 122 126 130 132 135 139 144 150 156 161 165 171 177 182 188 192 196
342 343 345 346 345 344 342 341 342 346 351 355 359 2 5 8 12 16 21 28 36 45 58 77 95 108 116 122 126 131 134 137 140 144 149 155 162 170 177 181 185 188 192 196
Height
5833 5830 5827 5825 5822 5819 5815 5811 5807 5804 5800 5796 5791 5787 5782 5777 5773 5768 5764 5759 5755 5750 5746 5742 5738 5735 5731 5728 5725 5722 5720 5718 5717 5716 5714 5713 5711 5709 5706 5704 5700 5697 5692 5688
5830 5826 5822 5819 5816 5813 5809 5805 5801 5796 5792 5787 5782 5777 5772 5766 5761 5755 5750 5745 5740 5735 5730 5725 5721 5718 5715 5712 5709 5706 5704 5702 5701 5700 5700 5700 5699 5698 5696 5695 5692 5689 5686 5683
5825 5821 5817 5814 5811 5806 5802 5797 5793 5787 5783 5776 5771 5765 5759 5752 5746 5740 5734 5728 5723 5717 5712 5707 5703 5698 5695 5692 5690 5687 5685 5684 5683 5683 5683 5684 5685 5685 5685 5684 5683 5681 5679 5676
5819 5816 5811 5810 5803 5798 5793 5788 5782 5777 5770 5764 5758 5753 5746 5737 5730 5723 5716 5709 5703 5697 5691 5686 5681 5676 5672 5670 5667 5665 5663 5662 5661 5662 5664 5666 5668 5670 5672 5672 5673 5672 5671 5670
5812 5808 5804 5799 5794 5788 5783 5777 5771 5764 5758 5751 5744 5738 5732 5721 5712 5703 5695 5687 5679 5672 5666 5660 5655 5650 5647 5645 5641 5639 5638 5637 5637 5638 5641 5645 5649 5653 5656 5659 5660 5661 5662 5662
5806 5801 5796 5792 5786 5779 5774 5766 5760 5752 5745 5737 5728 5720 5714 5702 5691 5681 5671 5662 5653 5645 5639 5633 5627 5621 5619 5618 5615 5613 5612 5612 5612 5613 5616 5622 5628 5634 5639 5644 5647 5650 5652 5653
5801 5795 5790 5784 5778 5772 5765 5758 5749 5738 5729 5719 5708 5697 5687 5675 5664 5652 5643 5634 5625 5618 5612 5607 5601 5597 5595 5594 5592 5591 5591 5591 5591 5592 5594 5599 5605 5614 5621 5627 5633 5638 5641 5644
5795 5789 5785 5777 5770 5763 5755 5744 5733 5722 5710 5698 5686 5674 5661 5649 5638 5627 5617 5609 5601 5594 5590 5585 5580 5576 5575 5574 5573 5573 5574 5573 5573 5574 5575 5578 5585 5594 5603 5611 5619 5625 5630 5634
5789 5784 5775 5767 5759 5749 5739 5728 5716 5703 5690 5675 5662 5649 5636 5625 5616 5607 5599 5592 5586 5580 5576 5572 5568 5564 5562 5561 5559 5559 5559 5558 5557 5557 5557 5560 5567 5576 5587 5596 5605 5613 5620 5625
5782 5775 5767 5757 5747 5736 5724 5712 5699 5683 5668 5652 5638 5627 5617 5608 5600 5593 5586 5580 5574 5568 5564 5560 5556 5552 5549 5547 5546 5545 5545 5544 5543 5542 5543 5545 5551 5560 5571 5581 5592 5602 5609 5616
5773 5766 5757 5747 5735 5723 5710 5695 5680 5664 5648 5633 5620 5612 5603 5596 5589 5583 5576 5569 5563 5556 5551 5547 5542 5538 5535 5532 5531 5530 5530 5530 5529 5529 5529 5531 5537 5546 5556 5569 5581 5592 5601 5608
5765 5755 5745 5734 5722 5708 5693 5678 5662 5646 5633 5622 5610 5601 5594 5587 5580 5572 5565 5558 5550 5543 5537 5532 5527 5523 5519 5516 5514 5514 5515 5515 5515 5516 5518 5520 5525 5535 5546 5558 5570 5581 5591 5600
5755 5745 5733 5721 5708 5693 5677 5661 5644 5630 5618 5609 5601 5593 5585 5578 5570 5562 5553 5545 5536 5528 5521 5515 5509 5505 5501 5498 5497 5498 5500 5502 5503 5505 5507 5511 5517 5526 5537 5549 5561 5573 5582 5592
5744 5734 5723 5710 5695 5678 5661 5644 5630 5618 5608 5600 5592 5585 5577 5568 5559 5550 5540 5531 5521 5512 5504 5497 5491 5486 5482 5480 5480 5483 5486 5489 5492 5495 5498 5504 5511 5520 5531 5542 5555 5566 5576 5586
5736 5724 5711 5696 5679 5663 5646 5631 5619 5609 5601 5594 5585 5577 5568 5558 5548 5538 5526 5515 5505 5495 5486 5478 5472 5467 5463 5462 5464 5468 5472 5477 5481 5485 5490 5497 5506 5515 5525 5537 5549 5561 5572 5581
5727 5713 5698 5682 5665 5648 5633 5620 5609 5602 5594 5586 5578 5569 5559 5548 5537 5525 5512 5500 5489 5479 5470 5461 5455 5450 5447 5447 5450 5455 5461 5467 5473 5478 5485 5493 5502 5511 5522 5534 5545 5557 5567 5578
5714 5701 5686 5671 5654 5638 5623 5611 5602 5594 5587 5579 5570 5561 5550 5538 5526 5513 5501 5488 5476 5465 5455 5446 5440 5436 5435 5436 5440 5445 5452 5459 5466 5473 5481 5490 5500 5510 5520 5531 5543 5554 5565 5575
5701 5687 5672 5656 5640 5626 5615 5605 5596 5589 5581 5572 5563 5552 5541 5528 5515 5503 5490 5477 5466 5454 5444 5436 5431 5428 5427 5429 5433 5439 5446 5454 5462 5470 5480 5489 5498 5509 5520 5531 5542 5553 5563 5572
5692 5678 5662 5646 5631 5617 5607 5598 5591 5584 5576 5566 5557 5546 5533 5520 5507 5495 5482 5470 5458 5448 5438 5431 5426 5424 5424 5427 5431 5437 5444 5452 5461 5470 5480 5490 5500 5511 5521 5532 5542 5552 5562 5571
5684 5669 5654 5639 5625 5612 5602 5594 5587 5580 5571 5562 5552 5541 5529 5516 5504 5491 5478 5466 5454 5444 5436 5430 5426 5424 5425 5428 5432 5438 5445 5454 5463 5473 5483 5494 5504 5513 5523 5533 5543 5553 5563 5572
5676 5662 5647 5633 5620 5608 5598 5590 5584 5576 5568 5558 5548 5537 5525 5514 5502 5489 5477 5466 5456 5446 5439 5434 5431 5429 5430 5432 5437 5443 5450 5459 5469 5478 5488 5498 5507 5517 5526 5536 5545 5554 5563 5572
5669 5655 5641 5627 5615 5604 5595 5588 5581 5574 5565 5556 5546 5535 5524 5514 5503 5491 5480 5469 5459 5451 5445 5440 5438 5437 5438 5440 5445 5451 5459 5468 5476 5485 5494 5503 5512 5521 5529 5538 5547 5556 5564 5572
5663 5649 5635 5622 5610 5601 5593 5586 5579 5573 5564 5555 5544 5534 5524 5514 5504 5494 5484 5475 5466 5459 5454 5451 5448 5448 5449 5452 5456 5463 5470 5477 5485 5493 5501 5509 5517 5525 5533 5542 5550 5558 5565 5572
5657 5644 5630 5617 5606 5598 5591 5585 5579 5572 5564 5555 5545 5535 5526 5517 5509 5499 5490 5482 5475 5470 5466 5463 5461 5461 5462 5465 5469 5475 5480 5487 5493 5501 5508 5516 5523 5530 5537 5545 5552 5559 5566 5572
5652 5639 5626 5614 5604 5596 5589 5583 5577 5571 5564 5556 5547 5538 5529 5521 5513 5505 5498 5491 5485 5481 5477 5475 5474 5474 5476 5478 5482 5486 5491 5497 5503 5509 5516 5522 5529 5535 5542 5548 5554 5561 5567 5572
5647 5634 5621 5609 5600 5592 5586 5581 5575 5569 5563 5556 5548 5540 5532 5525 5519 5512 5506 5500 5495 5491 5489 5487 5486 5487 5488 5490 5493 5497 5502 5507 5512 5517 5523 5529 5534 5539 5545 5550 5556 5561 5566 5571
5642 5630 5619 5609 5600 5592 5586 5580 5574 5568 5562 5555 5548 5541 5535 5529 5523 5518 5513 5509 5505 5502 5500 5498 5498 5498 5499 5502 5504 5508 5512 5516 5521 5525 5530 5534 5539 5543 5547 5552 5556 5561 5566 5570